Miscellaneous Local Product
Issued by NWS North Platte, NE

Home | Current Version | Previous Version | Text Only | Print | Product List | Glossary On
Versions: 1 2 3 4 5 6 7 8 9 10 11 12 13 14 15 16 17 18 19 20 21 22 23 24 25 26 27 28 29 30 31 32 33 34 35 36 37 38 39 40 41 42 43 44 45 46 47 48 49 50
299
AXUS43 KLBF 060610
MISLBF


WESTERN AND NORTH CENTRAL NEBRASKA HOURLY WEATHER ROUNDUP
NATIONAL WEATHER SERVICE NORTH PLATTE NE
1200 AM CST TUE DEC 06 2016

NOTE: "FAIR" INDICATES FEW OR NO CLOUDS BELOW 12,000 FEET WITH NO
SIGNIFICANT WEATHER AND/OR OBSTRUCTIONS TO VISIBILITY.

NOTE: STATIONS NOT REPORTING VARIABLES SUCH AS SKY/WEATHER OR
PRESSURE ARE PROVIDED BY RAWS AND APRS NETWORKS AND ARE NOT UNDER
NATIONAL WEATHER SERVICE QUALITY CONTROL.

...OBSERVATIONS IN AND NEAR THE EASTERN PANHANDLE OF NEBRASKA...

CITY           SKY/WX    TMP DP  RH WIND       PRES   REMARKS
PINE RIDGE     CLEAR     15   9  76 W13       29.92R WCI   1
CHADRON        CLEAR     17   6  62 W18G28    29.97R WCI   1
ALLIANCE       CLEAR     14   6  70 NW16      29.91R WCI  -2
SIDNEY         PTCLDY    18   8  65 NW12      29.94R WCI   5
CRESCENT LAKE    N/A     14   7  73 NW7G14      N/A  WCI   4
$$

...OBSERVATIONS IN NORTHERN NEBRASKA AND FAR SOUTHERN SOUTH DAKOTA...

CITY           SKY/WX    TMP DP  RH WIND       PRES   REMARKS
WINNER         FAIR      18   9  68 NW21G26   29.92R WCI   1
VALENTINE      CLEAR     18   7  62 NW16G22   29.93R WCI   3
THEDFORD       PTCLDY    20  15  78 CALM      29.93S
AINSWORTH      CLEAR     19  11  71 NW18G25   29.91R WCI   4
O`NEILL        PTCLDY    23  12  62 NW18G30   29.90R WCI   9
ORD            MOCLDY    26  11  52 NW21G29   29.91R WCI  12
BROKEN BOW     MOCLDY    25  14  63 NW13G24   29.92R WCI  14
VALENTINE NWR    N/A     19  11  69 NW16G26     N/A  WCI   4
BUTTE            N/A     18   9  68 W24G35      N/A  WCI   0
HALSEY           N/A     21  12  68 NW6         N/A  WCI  13
CHAMBERS         N/A     22   7  51 N7          N/A  WCI  14
EWING            N/A     25  16  68 W13G20      N/A  WCI  14
$$

...OBSERVATIONS IN SOUTHWEST NEBRASKA AND FAR NORTHEAST COLORADO...

CITY           SKY/WX    TMP DP  RH WIND       PRES   REMARKS
WRAY           FAIR      19  10  68 NW7       29.99R WCI  10
HOLYOKE        FAIR      23  12  63 NW6       29.99R WCI  16
IMPERIAL       CLEAR     23  10  57 NW15      29.97R WCI  10
OGALLALA       MOCLDY    24  12  59 NW10G21   29.97R WCI  13
NORTH PLATTE   MOCLDY    24  16  71 NW10      29.94S WCI  14
MCCOOK         CLOUDY    28  16  60 NW14      29.97R WCI  17
LEXINGTON      CLOUDY    27  16  62 NW13      29.95R WCI  16
STAPLETON        N/A     20  14  78 CALM        N/A
GOTHENBURG       N/A     26  16  64 NW5         N/A  WCI  20
CALLAWAY         N/A     23  16  75 NW10        N/A  WCI  12
$$

...OBSERVATIONS IN CENTRAL LINCOLN COUNTY AREA...

CITY           SKY/WX    TMP DP  RH WIND       PRES   REMARKS
N.P. AIRPORT   MOCLDY    24  16  71 NW10      29.94S WCI  14
N.P. DOWNTOWN    N/A     24  15  69 W8G18       N/A  WCI  15
N.P. SOUTHEAST   N/A     24  15  67 NW3G12      N/A
N.P. HILLCREST   N/A     23  17  77 NW9         N/A  WCI  13
$$

...SOME OBSERVATIONS FROM AROUND THE REGION...

CITY           SKY/WX    TMP DP  RH WIND       PRES   REMARKS
LARAMIE        CLEAR      6 -10  47 NW18      29.85R WCI -13
CHEYENNE       CLEAR     11  -8  42 NW16      29.89R WCI  -6
DENVER         PTCLDY    21  -1  38 N7        29.91R WCI  12
AKRON          CLOUDY    12   6  77 NW9       29.95R WCI   0
SCOTTSBLUFF    CLEAR     16   5  62 NW17      29.96R WCI   0
RAPID CITY     CLEAR     17   3  54 NW17      29.87F WCI   1
BISMARCK       LGT SNOW  14  12  92 NW33G46   29.69S VSB 1   WCI  -8
PIERRE         MOCLDY    14   5  67 NW29G41   29.89R WCI  -7
SIOUX FALLS    CLOUDY    23  15  71 W18G35    29.81R WCI   9
OMAHA          CLOUDY    34  27  75 N24G30    29.85R WCI  21
GRAND ISLAND   CLOUDY    29  18  63 N17G25    29.90F WCI  17
KANSAS CITY    CLEAR     34  28  79 SE3       29.77S
WICHITA        CLEAR     34  33  96 NW5       29.77R WCI  30
OKLAHOMA CITY  MOCLDY    42  40  92 NE3       29.73R
DALLAS         MOCLDY    50  47  89 S6        29.72F FOG
AMARILLO       CLEAR     38  14  37 N30G44    29.80R WCI  26
DODGE CITY     CLEAR     33  22  63 N24G38    29.86R WCI  20
HAYS           MOCLDY    33  19  56 N23G32    29.90R WCI  21
GOODLAND       CLEAR     18  11  74 NW10      29.95R WCI   6
$$




USA.gov is the U.S. government's official web portal to all federal, state and local government web resources and services.